Theta_e
310 310 310 310 310 309 309 308 307 306 307 302 300 299 299 299 300 301 302 302 301 302 303 305 305 306 314 312 315 313 310 312 311 312 312 312 311 310 311 310 312 315 314 314 313 312 311
307 307 307 308 308 307 308 308 306 304 302 299 298 299 300 300 300 301 303 303 303 303 304 305 306 310 313 309 313 312 311 310 311 313 312 312 312 311 309 311 310 312 313 312 311 312 312
306 305 304 304 303 303 306 305 304 303 300 298 298 299 300 300 301 302 303 303 305 305 305 306 309 311 308 312 312 312 312 313 313 313 313 312 312 311 310 311 311 312 311 309 310 311 312
308 304 304 305 305 306 305 303 301 299 298 298 298 299 300 301 302 303 305 304 306 306 306 308 311 309 306 311 312 312 312 312 313 313 312 312 312 311 310 310 307 311 307 307 308 311 313
308 304 304 304 305 305 304 305 303 299 298 297 298 299 300 301 303 303 306 304 306 307 309 311 310 310 310 312 311 311 311 312 311 312 313 313 312 310 310 306 302 304 305 309 310 313 313
308 305 304 301 300 303 303 303 302 298 297 297 297 299 300 301 302 303 306 305 308 309 309 310 308 306 308 311 309 311 311 312 311 310 311 313 308 307 307 303 302 307 310 309 309 311 313
309 305 304 302 298 298 298 298 298 297 297 297 297 299 300 301 304 304 305 310 302 306 308 308 307 306 308 309 310 310 310 311 311 308 310 309 307 306 307 309 308 310 310 309 307 307 309
310 306 304 303 299 297 297 295 297 297 297 297 297 298 300 301 305 304 304 305 307 308 308 308 308 307 308 308 310 308 310 309 310 310 309 306 307 307 309 309 309 308 308 306 305 306 307
310 307 305 304 301 297 296 295 296 296 296 297 297 298 300 302 305 306 305 307 308 309 306 309 308 309 308 309 309 308 309 309 309 310 308 308 309 309 309 308 307 306 306 306 307 305 303
310 309 306 304 303 297 296 296 296 296 296 296 296 297 299 302 304 307 303 306 308 309 302 308 310 310 309 308 311 309 309 308 308 309 308 306 306 308 308 308 307 308 306 307 307 305 304
311 310 307 305 304 297 296 295 295 296 296 296 296 297 300 302 303 301 302 307 307 305 303 307 310 308 306 309 310 309 304 308 309 309 306 302 308 308 307 306 307 305 306 306 305 304 303
312 310 308 305 304 300 296 295 294 295 295 295 296 297 299 301 305 302 305 307 308 305 301 307 307 307 306 305 307 308 303 300 302 305 304 304 303 307 306 307 306 305 306 303 300 301 304
312 310 309 306 304 302 296 295 294 295 295 295 295 298 301 300 299 303 306 305 303 304 302 306 307 306 305 304 305 305 301 299 302 301 300 300 304 306 306 308 305 304 302 304 300 304 303
311 311 309 307 305 303 296 294 293 294 295 294 295 299 302 300 301 304 306 300 302 304 304 306 306 305 304 303 303 302 303 302 298 300 300 302 303 304 302 305 305 304 304 304 301 303 300
312 311 309 307 305 304 298 294 293 294 294 294 296 304 304 301 303 305 298 300 303 302 306 306 305 305 302 303 303 301 300 301 298 298 299 301 300 299 299 300 301 301 305 302 304 301 300
313 311 310 308 305 304 299 293 293 293 294 294 298 303 303 299 304 303 297 303 305 305 305 304 303 303 302 302 302 301 299 298 298 296 296 299 299 298 299 297 295 300 297 301 301 300 302
314 312 311 309 306 304 300 293 292 292 293 295 302 295 301 301 302 296 297 297 304 302 304 305 303 304 301 303 301 300 298 297 297 296 295 296 297 296 296 294 294 293 294 294 296 297 300
315 312 311 309 307 305 300 292 292 291 293 296 298 295 298 302 297 295 299 304 302 300 299 303 302 303 302 302 302 301 299 297 294 294 296 294 294 296 295 291 289 291 291 292 293 293 290
318 313 311 309 308 305 298 291 291 291 292 300 294 294 299 301 296 297 299 299 298 300 298 301 300 299 299 301 302 300 297 294 293 293 294 291 291 291 291 292 291 290 289 289 288 288 288
318 314 312 310 308 305 293 291 291 291 292 298 297 297 295 292 291 298 299 300 298 295 296 296 298 297 298 299 297 298 297 294 291 292 294 291 290 291 292 291 290 290 289 289 289 285 287
316 316 312 310 307 306 292 294 291 291 291 297 294 296 295 297 294 298 298 298 297 296 295 294 294 296 296 296 297 296 296 293 291 293 292 289 287 289 289 289 289 289 290 290 289 288 288
314 314 312 310 308 307 297 295 293 291 291 296 295 294 290 292 293 295 299 297 298 295 294 294 294 294 293 294 293 293 294 293 291 292 290 288 288 289 288 289 288 289 289 289 289 289 288
314 312 311 310 309 307 306 302 301 291 292 294 293 293 292 292 292 294 293 295 296 293 291 291 293 291 291 291 290 289 288 288 289 291 289 288 288 289 289 288 289 288 285 289 288 283 282
313 311 311 309 309 307 304 303 295 291 292 296 294 293 292 292 291 293 293 293 293 292 292 291 290 290 290 289 289 288 289 289 289 289 288 287 288 289 289 288 286 284 283 281 281 279 276
312 310 310 307 308 306 304 295 291 290 292 294 294 293 291 291 291 292 292 291 290 290 291 291 290 289 289 289 288 288 287 289 289 288 287 287 288 289 288 286 285 285 282 280 279 280 274
309 305 303 307 306 304 296 291 290 290 293 294 293 293 292 292 290 290 290 290 289 289 290 290 289 289 289 289 289 288 288 288 289 289 287 287 285 286 286 287 287 279 284 281 275 279 275
306 302 303 306 303 298 292 291 290 291 293 293 294 292 291 291 287 289 289 289 288 288 288 289 289 289 288 288 289 289 289 287 287 289 289 287 286 287 287 289 286 282 282 281 280 278 277
303 302 302 304 301 295 292 291 290 290 292 293 291 291 291 288 287 287 288 289 288 288 289 287 287 287 288 290 290 287 285 286 287 286 287 287 285 282 284 285 288 279 280 283 277 276 276
302 301 300 298 296 294 293 290 290 291 292 292 290 290 289 287 286 286 286 286 288 289 288 286 287 288 289 287 287 286 288 284 282 284 283 283 281 282 284 283 277 277 277 276 276 276 275
Wind_Speed
6 6 6 7 8 9 10 11 11 11 11 11 12 12 12 12 13 13 13 11 9 8 6 5 3 3 3 4 2 7 7 7 5 4 6 3 4 1 3 2 2 2 1 3 1 4 3
7 7 7 7 8 9 10 10 10 11 11 12 12 12 13 13 13 11 12 10 8 6 5 3 4 5 3 2 1 4 5 5 8 5 4 6 2 1 3 1 2 1 2 5 3 2 1
6 7 9 9 10 10 10 10 10 11 11 11 11 11 12 13 13 12 11 9 6 5 4 4 5 4 5 2 2 3 4 5 6 6 2 3 2 1 1 2 2 0 4 5 3 0 2
6 6 7 7 9 10 11 11 10 11 10 11 11 12 13 13 13 12 11 7 5 4 5 5 4 3 2 1 3 4 5 2 4 5 4 3 3 2 2 1 5 3 4 3 3 4 2
5 5 6 7 8 9 11 11 10 9 10 11 12 12 13 14 13 12 9 4 4 5 4 4 3 3 1 1 1 3 4 2 5 2 4 3 3 3 4 3 4 6 2 1 1 1 2
4 5 6 7 8 9 10 11 10 9 10 11 11 12 13 14 13 14 9 2 5 4 3 3 4 4 2 1 3 4 3 3 2 2 3 4 4 3 3 4 4 3 2 1 1 3 3
4 4 5 7 9 10 11 11 9 9 10 11 12 13 13 13 11 14 7 2 5 4 8 3 1 1 2 4 3 5 5 4 2 5 2 3 4 2 4 4 1 1 1 3 3 3 3
6 5 5 7 8 9 11 12 9 9 9 10 12 12 12 13 8 11 6 6 2 2 2 2 1 2 2 3 3 6 8 3 3 2 2 5 2 3 1 1 0 1 1 4 3 2 1
8 7 7 7 8 8 10 10 8 9 9 11 11 11 13 12 4 8 13 6 2 1 4 1 0 1 1 3 1 5 4 2 3 2 2 3 1 3 2 1 2 2 4 3 4 5 2
10 9 8 8 9 9 9 10 8 7 8 9 10 11 11 8 2 4 4 3 2 2 4 2 2 2 2 1 3 3 5 2 4 1 1 3 3 1 1 2 3 3 2 2 2 2 4
11 10 9 9 9 10 10 10 8 7 7 8 9 9 9 9 2 3 1 2 1 1 4 1 1 1 1 2 1 4 7 2 2 2 3 4 1 1 1 2 2 5 1 2 3 3 3
12 11 10 10 10 10 10 10 10 8 8 8 8 7 6 3 4 3 2 2 1 6 5 1 1 1 2 2 1 1 4 8 1 2 1 5 3 2 2 1 1 2 2 4 4 3 1
15 12 11 10 10 11 10 10 9 9 8 9 8 5 3 3 1 1 2 1 5 5 1 2 1 1 1 2 1 4 5 6 1 3 3 4 2 4 2 2 2 4 4 4 4 2 6
16 15 13 10 10 11 11 11 8 8 8 8 7 3 1 2 2 3 1 5 2 3 4 1 2 1 2 3 1 3 2 1 3 2 1 1 5 2 5 2 2 1 4 4 5 4 5
19 17 15 12 10 10 11 10 9 7 7 8 6 2 1 1 2 3 5 3 6 4 2 3 2 1 1 1 1 2 1 2 1 2 3 2 5 4 4 2 2 2 3 1 1 0 2
22 21 18 13 11 10 10 10 8 7 6 6 3 1 1 2 2 2 4 5 4 1 2 2 5 4 4 3 3 3 3 2 2 1 1 1 5 2 5 1 3 2 3 2 1 4 6
26 23 20 16 12 11 9 10 7 7 5 3 2 3 1 2 1 4 3 6 3 1 2 3 3 3 4 4 5 4 3 1 3 3 2 2 1 3 1 2 1 4 1 4 0 3 4
29 26 22 18 14 11 9 7 7 6 4 1 4 1 3 1 2 1 3 2 2 4 2 2 3 2 4 3 4 4 5 1 0 3 4 1 3 4 6 1 0 1 2 3 3 4 2
30 28 24 20 16 11 8 5 4 5 2 2 2 1 2 1 2 2 1 1 2 1 1 3 4 2 2 4 3 3 3 1 2 2 5 5 2 3 2 2 1 3 2 3 3 3 5
35 31 28 23 17 12 7 3 3 4 2 2 2 1 3 3 1 4 4 3 3 2 1 1 2 2 3 3 1 4 4 3 2 2 3 1 1 5 6 2 2 3 3 3 4 2 4
39 32 30 25 20 14 8 4 3 5 3 5 2 2 2 2 3 3 4 3 3 3 1 1 1 4 5 6 4 4 3 2 2 2 2 2 5 2 3 4 3 5 7 7 8 7 7
41 37 31 28 24 20 17 10 4 5 6 4 3 3 2 1 1 5 3 5 7 2 4 2 2 1 1 2 1 4 5 4 4 2 4 1 2 1 3 7 7 9 7 9 9 5 5
42 37 34 30 25 18 14 13 10 6 11 4 3 2 3 2 2 4 3 3 5 8 1 3 2 3 2 3 3 3 3 3 3 6 6 5 2 2 4 3 5 6 2 1 0 2 2
42 40 36 32 22 16 14 13 10 10 17 5 4 4 3 2 2 2 3 2 2 1 5 1 3 3 2 2 4 4 3 2 2 2 2 5 4 3 3 2 2 2 1 3 2 2 1
42 42 37 30 21 17 12 9 10 10 15 14 5 3 3 3 2 3 4 5 5 5 3 3 4 2 1 3 2 1 2 1 2 5 6 2 3 0 2 2 4 1 3 2 4 4 2
45 39 33 26 21 16 13 10 8 7 12 15 7 6 4 5 0 3 3 2 3 3 2 2 2 2 3 2 1 1 3 2 1 2 4 5 4 3 2 2 4 4 3 3 4 4 3
42 34 30 26 21 19 16 10 4 5 9 11 4 6 6 4 3 2 2 3 3 3 3 2 2 2 3 2 1 2 2 1 2 3 3 2 1 5 5 4 4 3 2 3 4 5 3
36 31 29 25 22 18 14 10 8 8 12 12 6 5 3 3 5 4 4 2 2 3 3 3 3 1 1 2 2 1 2 1 1 1 1 4 3 3 1 1 7 3 1 3 2 2 3
33 30 27 23 20 18 15 10 10 12 13 12 8 16 17 10 5 17 20 15 3 1 4 2 3 2 2 3 2 1 1 2 2 2 2 1 3 2 3 2 1 2 3 1 1 2 4
Wind_Direction
55 52 42 32 25 18 13 7 3 6 4 7 5 8 9 7 4 4 1 357 352 347 357 2 25 80 86 49 28 357 356 358 350 9 39 39 56 36 106 351 18 82 341 334 341 329 300
28 33 30 27 18 15 10 1 1 5 8 8 8 10 8 5 2 2 359 358 355 354 6 35 88 107 95 107 30 1 6 15 22 35 43 35 113 152 117 122 124 258 293 291 317 337 211
20 27 23 16 9 8 3 0 2 3 9 11 9 10 7 3 358 359 359 3 18 33 45 63 81 105 66 159 41 12 8 29 28 27 45 40 39 138 105 76 334 0 336 345 26 133 133
5 14 19 11 8 3 1 1 1 5 8 9 7 5 3 0 356 -0 358 4 32 46 65 70 73 73 81 37 22 18 7 35 17 30 45 35 1 96 76 268 20 52 51 56 344 136 337
347 1 3 3 3 360 357 356 2 5 7 6 5 4 360 358 356 356 354 15 69 59 67 61 53 65 65 349 31 10 20 355 331 21 16 5 41 74 26 72 12 2 203 172 355 309 138
323 343 351 356 356 355 356 353 357 5 6 4 4 3 1 356 354 354 352 105 73 84 45 61 69 44 1 312 327 338 346 342 49 1 42 58 50 58 40 79 230 201 184 226 248 256 6
299 323 337 348 351 352 352 353 1 5 6 4 2 359 358 357 356 355 10 108 28 2 37 62 314 53 353 333 352 2 356 346 26 53 97 23 59 248 236 196 80 46 303 274 301 307 223
284 304 317 335 348 351 352 351 355 1 2 3 359 356 358 354 6 10 27 71 82 144 41 24 23 45 17 360 350 351 359 37 12 72 74 26 196 193 213 169 90 180 269 258 260 25 187
269 292 306 320 335 343 347 351 353 355 357 358 358 354 353 354 19 28 65 78 89 103 110 351 50 66 302 17 46 330 26 344 52 16 36 158 227 1 50 322 301 231 189 189 217 335 17
257 278 298 310 327 335 338 340 345 350 351 353 353 352 356 360 87 42 57 49 81 85 69 319 19 12 11 72 33 357 17 45 20 101 341 243 319 60 69 268 135 302 168 128 183 99 216
250 265 285 297 313 326 331 332 333 338 342 347 350 351 1 32 81 65 39 93 106 113 14 264 264 283 62 84 221 6 36 33 91 342 68 260 330 341 274 226 146 229 306 257 215 207 92
243 257 273 289 302 320 328 332 329 329 337 342 343 348 1 23 71 77 97 121 105 43 265 217 34 65 54 25 37 199 32 33 87 95 349 255 284 237 219 56 105 338 322 47 48 110 283
241 250 262 279 295 313 322 327 329 327 332 335 337 345 21 36 62 71 132 75 37 129 21 202 235 93 106 206 349 40 21 16 51 39 338 327 283 328 49 9 51 73 53 329 331 353 234
238 246 258 271 286 306 317 319 325 324 328 331 327 328 340 110 88 130 108 48 132 223 200 106 98 57 223 156 330 47 69 63 36 58 75 125 317 7 359 87 157 117 162 174 259 235 266
241 244 251 266 275 294 308 313 317 316 324 331 324 302 182 92 128 153 83 80 213 193 120 144 72 144 255 241 186 86 55 191 115 25 164 140 275 317 54 356 66 154 190 130 291 243 343
237 240 242 252 268 282 300 306 307 309 323 339 333 349 70 5 155 117 83 225 188 149 144 113 194 185 220 192 169 171 174 139 148 72 57 164 305 4 305 358 38 189 140 72 20 262 253
235 235 237 245 258 271 289 299 300 305 308 337 348 31 50 130 149 48 179 210 171 149 154 164 199 222 213 186 178 192 194 113 164 150 82 109 102 274 293 24 54 357 350 38 301 176 232
232 232 232 237 248 264 284 294 296 309 306 147 108 6 7 186 50 1 171 219 139 164 31 133 108 182 207 171 186 220 215 143 186 149 147 170 155 253 245 341 173 222 179 151 154 249 265
236 227 230 232 242 253 264 270 293 317 273 164 110 213 30 108 211 224 275 330 32 128 166 157 160 170 166 190 208 171 171 56 150 145 159 177 201 322 304 6 11 95 147 140 117 105 205
236 224 225 229 230 239 241 240 298 308 262 192 98 347 329 46 76 140 155 215 208 340 103 96 146 119 128 184 262 185 171 178 72 86 96 36 191 215 230 161 112 242 200 200 155 148 253
230 230 221 224 223 222 205 232 311 304 216 175 56 243 178 245 271 162 153 122 146 215 342 222 282 227 172 185 197 200 114 112 48 171 94 141 229 232 276 262 236 244 239 224 219 228 225
219 221 218 223 221 218 209 221 248 291 206 181 162 153 17 131 80 121 177 220 189 166 135 247 240 155 202 221 205 176 135 179 191 122 146 153 268 65 281 266 276 279 247 244 251 264 275
216 215 217 223 227 230 235 233 231 255 196 178 181 131 112 350 116 124 216 190 197 136 54 63 212 122 145 148 102 95 78 79 175 159 175 162 164 84 270 346 328 291 247 359 52 94 136
213 214 221 221 221 226 229 227 206 238 214 196 180 140 116 213 160 207 133 76 128 128 144 52 60 120 184 118 95 80 63 111 170 183 148 148 140 152 271 8 250 270 122 128 172 205 282
213 215 220 214 211 218 216 206 218 225 224 214 198 182 134 120 127 88 103 117 78 52 69 70 29 39 167 76 66 32 331 298 213 205 191 145 141 275 224 202 312 280 318 100 97 287 207
205 202 193 201 204 200 186 199 217 223 209 209 202 166 111 125 129 344 122 152 136 117 77 83 72 80 62 61 75 248 254 250 263 111 51 100 88 140 115 214 261 228 134 70 101 287 249
195 184 184 195 191 183 178 187 184 175 175 199 170 156 93 103 8 350 133 149 112 87 102 121 126 40 23 102 142 205 269 294 251 202 192 131 85 193 224 249 266 201 312 138 78 250 272
183 182 181 188 186 170 163 175 180 179 171 174 110 139 86 104 39 10 11 78 105 127 140 181 83 351 73 98 178 204 142 244 301 315 252 186 169 202 99 259 268 21 316 216 229 269 300
178 177 171 165 158 161 164 162 169 170 173 159 105 109 93 71 127 89 65 45 7 75 121 28 137 130 140 103 157 98 183 74 86 259 355 279 183 187 184 238 241 359 85 6 24 306 301